Flight Track Log - Related Links

Times and Time Zones

All times are in EDT time to prevent confusion due to time zone crossing. See the EGF4279 flight status page for this flight to view local times or setup timezone preferences in your user account.

Time Position Orientation Groundspeed Altitude Reporting Facility
EDT Latitude Longitude Course Direction KTS MPH feet Rate Location/Type
Tue 05:59:11 PM 41.9167 -87.9167 188° South 182 209 2,800  Level Chicago TRACON
Tue 06:00:00 PM 41.8048 -87.9414 180° South  Level Estimated
Tue 06:00:12 PM 41.8500 -87.9333 191° South 234 269 4,300  Level Chicago TRACON
Tue 06:00:57 PM 41.8117 -87.9475 195° South 238 274 5,000 1,626 Climbing Chicago Center
Tue 06:01:00 PM 41.7163 -87.9587 180° South  Level Estimated
Tue 06:01:59 PM 41.7336 -87.9636 189° South 270 311 7,200  Level Chicago Center
Tue 06:02:00 PM 41.6279 -87.9759 192° South  Level Estimated
Tue 06:03:00 PM 41.5395 -87.9931 189° South  Level Estimated
Tue 06:03:01 PM 41.6381 -87.9822 188° South 292 336 9,600  Level Chicago Center
Tue 06:04:00 PM 41.4659 -88.0072 188° South  Level FlightAware Approximate
Tue 06:04:03 PM 41.5556 -87.9981 188° South 299 344 11,400  Level Chicago Center
Tue 06:05:05 PM 41.4700 -88.0139 188° South 308 354 13,300 1,839 Climbing Chicago Center
Tue 06:06:07 PM 41.3758 -88.0342 189° South 312 359 15,200 1,597 Climbing Chicago Center
Tue 06:07:09 PM 41.2883 -88.0486 187° South 319 367 16,600 871 Climbing Chicago Center
Tue 06:08:11 PM 41.1922 -88.0669 188° South 338 389 17,000 194 Climbing Chicago Center
Tue 06:09:13 PM 41.0892 -88.0856 188° South 364 419 17,000  Level Chicago Center
Tue 06:10:16 PM 40.9656 -88.1086 188° South 374 430 17,000 -96 Level Chicago Center
Tue 06:11:18 PM 40.8653 -88.1261 188° South 367 422 16,800 -1,016 Descending Chicago Center
Tue 06:12:20 PM 40.7667 -88.1439 188° South 359 413 14,900 -1,935 Descending Chicago Center
Tue 06:13:22 PM 40.6683 -88.1636 189° South 360 414 12,800 -1,887 Descending Chicago Center
Tue 06:14:24 PM 40.5756 -88.1794 187° South 342 394 11,000 -919 Descending Chicago Center
Tue 06:15:26 PM 40.4728 -88.1981 188° South 312 359 10,900 -823 Descending Chicago Center
Tue 06:16:28 PM 40.3917 -88.2128 188° South 298 343 9,300 -1,500 Descending Chicago Center
Tue 06:17:30 PM 40.3131 -88.2283 189° South 289 333 7,800 -1,597 Descending Chicago Center
Tue 06:18:32 PM 40.2442 -88.2564 197° South 263 303 6,000 -1,742 Descending Chicago Center

Login

Don't have an account? Register now (free) for customized features, flight alerts, and more!